This is the latest recevied weather packets stored in our database for station/object K7FRY. If no packets are shown the sender has not sent any weather packets the latest 10 day(s).
| Time | Temp. | Humidity | Pressure | Rain* | Wind** | Luminosity | Snow |
|---|---|---|---|---|---|---|---|
| 1777775586 | 26.11° C | 28% | 1013.6 hPa | 0 mm | - | 0 W/m² | - |
| 1777775283 | 26.11° C | 28% | 1013.6 hPa | 0 mm | - | 0 W/m² | - |
| 1777774977 | 26.11° C | 28% | 1013.7 hPa | 0 mm | - | 0 W/m² | - |
| 1777774674 | 26.67° C | 28% | 1013.8 hPa | 0 mm | - | 0 W/m² | - |
| 1777774370 | 26.67° C | 27% | 1013.7 hPa | 0 mm | - | 0 W/m² | - |
| 1777774068 | 27.22° C | 27% | 1013.7 hPa | 0 mm | - | 0 W/m² | - |
| 1777773766 | 27.22° C | 27% | 1013.6 hPa | 0 mm | - | 1 W/m² | - |
| 1777773462 | 27.22° C | 27% | 1013.6 hPa | 0 mm | - | 4 W/m² | - |
| 1777773159 | 27.22° C | 27% | 1013.6 hPa | 0 mm | - | 8 W/m² | - |
| 1777772854 | 27.78° C | 27% | 1013.5 hPa | 0 mm | - | 11 W/m² | - |
| 1777772553 | 27.78° C | 27% | 1013.4 hPa | 0 mm | - | 16 W/m² | - |
| 1777772249 | 27.78° C | 27% | 1013.5 hPa | 0 mm | - | 20 W/m² | - |
| 1777771947 | 27.78° C | 27% | 1013.6 hPa | 0 mm | - | 25 W/m² | - |
| 1777771645 | 27.78° C | 27% | 1013.7 hPa | 0 mm | - | 29 W/m² | - |
| 1777771341 | 27.78° C | 27% | 1013.7 hPa | 0 mm | - | 37 W/m² | - |
| 1777771038 | 28.33° C | 27% | 1013.6 hPa | 0 mm | - | 44 W/m² | - |
| 1777770735 | 28.33° C | 27% | 1013.5 hPa | 0 mm | - | 52 W/m² | - |
| 1777770431 | 28.33° C | 27% | 1013.7 hPa | 0 mm | - | 60 W/m² | - |
| 1777770129 | 28.33° C | 27% | 1013.2 hPa | 0 mm | - | 66 W/m² | - |
| 1777769826 | 28.33° C | 26% | 1013.7 hPa | 0 mm | - | 70 W/m² | - |
| 1777769523 | 28.33° C | 26% | 1013.5 hPa | 0 mm | - | 77 W/m² | - |
| 1777769219 | 28.89° C | 26% | 1013.5 hPa | 0 mm | - | 88 W/m² | - |
| 1777768917 | 28.89° C | 26% | 1013.6 hPa | 0 mm | - | 101 W/m² | - |
| 1777768614 | 28.89° C | 26% | 1013.6 hPa | 0 mm | - | 147 W/m² | - |
| 1777768311 | 28.89° C | 26% | 1013.8 hPa | 0 mm | - | 173 W/m² | - |
* Rain latest hour (hover to see other rain measurements)
** Current wind speed in m/s (hover to see current wind gust speed)